Flag for Germany Weather past 2 weeks in Chemnitz, Saxony, Germany

Now
72 °F

Passing clouds.


Feels Like: 76 °F
Forecast: 55 / 71 °F
Wind: 5 mph from Southwest

Location: Altenburg Nobitz

Current Time: Aug 29, 2014 at 1:01:18 PM

Latest Report: Aug 29, 2014 at 12:20 PM


Visibility: N/A

Pressure: 29.98 "Hg

Humidity: 61%

Dew point: 57 °F

Location of ChemnitzLocation

Historic Weather in Chemnitz — Graph

°F

Chemnitz temperature yesterday

Maximum temperature yesterday: 73 °F (at 3:50 PM)
Minimum temperature yesterday: 45 °F (at 6:50 AM)
Average temperature yesterday: 66 °F

Past Weeks' High & Low Weather Summary

 TemperatureHumidityPressure
High73 °F (Aug 28, 3:50 PM)100% (Aug 26, 9:20 AM)30.09 "Hg (Aug 26, 9:20 AM)
Low45 °F (Aug 28, 6:50 AM)37% (Aug 22, 6:20 PM)29.71 "Hg (Aug 26, 8:20 AM)
Average63 °F63%29.94 "Hg
* Reported Aug 14 11:20 AM — Aug 29 11:50 AM, Chemnitz, Weather by CustomWeather, © 2014

Note: Actual official high and low records may vary slightly from our data, if they occured in-between our weather recording intervals... More about our weather records

Advertising

Chemnitz weather history for previous 24 hours

 ConditionsComfort  
Time TempWeatherWind HumidityBarometerVisibility
11:50 AM
Aug 29
68 °FSunny.5 mph69%29.98 "Hg10 mi
11:20 AM66 °FSunny.7 mph73%29.98 "Hg10 mi
10:50 AM68 °FSunny.10 mph69%29.98 "Hg10 mi
10:20 AM68 °FSunny.8 mph69%29.98 "Hg10 mi
9:50 AM68 °FSunny.7 mph69%29.98 "Hg10 mi
9:20 AM66 °FPassing clouds.7 mph68%29.98 "HgN/A
8:50 AM66 °FSunny.9 mph68%29.98 "Hg10 mi
8:20 AM64 °FPassing clouds.6 mph73%29.98 "HgN/A
7:50 PM
Aug 28
63 °FSunny.2 mph77%30.01 "Hg10 mi
7:20 PM66 °FSunny.2 mph68%30.04 "Hg10 mi
6:50 PM70 °FSunny.2 mph46%30.04 "Hg10 mi
6:20 PM73 °FPassing clouds.3 mph41%30.04 "HgN/A
5:20 PM73 °FPassing clouds.3 mph38%30.04 "HgN/A
4:50 PM73 °FPassing clouds.6 mph41%30.04 "HgN/A
4:20 PM73 °FPassing clouds.7 mph38%30.04 "HgN/A
3:50 PM73 °FPassing clouds.7 mph38%30.04 "HgN/A
3:20 PM72 °FPassing clouds.7 mph41%30.07 "HgN/A
2:50 PM72 °FPassing clouds.7 mph41%30.07 "HgN/A
2:20 PM72 °FPassing clouds.7 mph41%30.07 "HgN/A
1:50 PM70 °FPassing clouds.7 mph43%30.07 "HgN/A
1:20 PM70 °FPassing clouds.7 mph43%30.07 "HgN/A
Weather by CustomWeather, © 2014

See weather overviewHow to use our weather pages